Location: Honolulu
(21.3069°N, 157.8583°W)
Time: 07:19:24
(UTC-10:00)

Tiros 1 despin weight - Pass Details

Date: 16 May 2026
Orbit: 554 x 591 km, 48.2° (Epoch: 10 June)

Event Time Altitude Azimuth Distance (km) Brightness Sun altitude
Exits shadow 03:37:05 36° 23° (NNE) 903 ? -28.5°
Drops below altitude 10° 03:39:44 10° 37° (NE) 1,854 ? -28.0°
Sets 03:42:00 0° 40° (NE) 2,745 ? -27.6°
